This is the latest recevied weather packets stored in our database for station/object HS6TUX-4. If no packets are shown the sender has not sent any weather packets the latest 10 day(s).
| Time | Temp. | Humidity | Pressure | Rain* | Wind** | Luminosity | Snow |
|---|---|---|---|---|---|---|---|
| 1777831661 | 28.89° C | 99% | 726 hPa | - | - | 0 W/m² | - |
| 1777830733 | 28.33° C | 99% | 726 hPa | - | - | 0 W/m² | - |
| 1777829805 | 28.89° C | 99% | 726 hPa | - | - | 0 W/m² | - |
| 1777828877 | 28.89° C | 99% | 726 hPa | - | - | 0 W/m² | - |
| 1777827948 | 29.44° C | 99% | 727 hPa | - | - | 0 W/m² | - |
| 1777827020 | 30° C | 99% | 727 hPa | - | - | 0 W/m² | - |
| 1777826092 | 29.44° C | 99% | 727 hPa | - | - | 0 W/m² | - |
| 1777825164 | 30° C | 99% | 727 hPa | - | - | 0 W/m² | - |
| 1777824236 | 30° C | 99% | 727 hPa | - | - | 0 W/m² | - |
| 1777823308 | 30° C | 99% | 727 hPa | - | - | 0 W/m² | - |
| 1777822379 | 30° C | 99% | 727 hPa | - | - | 0 W/m² | - |
| 1777821451 | 30.56° C | 99% | 728 hPa | - | - | 0 W/m² | - |
| 1777820523 | 30.56° C | 99% | 728 hPa | - | - | 0 W/m² | - |
| 1777819594 | 31.11° C | 99% | 728 hPa | - | - | 0 W/m² | - |
| 1777818666 | 31.11° C | 99% | 728 hPa | - | - | 0 W/m² | - |
| 1777817738 | 31.11° C | 99% | 728 hPa | - | - | 0 W/m² | - |
| 1777816810 | 32.22° C | 95% | 730 hPa | - | - | 0 W/m² | - |
| 1777815882 | 32.78° C | 89% | 730 hPa | - | - | 0 W/m² | - |
| 1777814954 | 33.33° C | 83% | 731 hPa | - | - | 0 W/m² | - |
| 1777814025 | 33.33° C | 82% | 731 hPa | - | - | 0 W/m² | - |
| 1777813097 | 33.89° C | 77% | 731 hPa | - | - | 0 W/m² | - |
| 1777812169 | 34.44° C | 74% | 732 hPa | - | - | 0 W/m² | - |
| 1777811241 | 34.44° C | 71% | 732 hPa | - | - | 0 W/m² | - |
| 1777810313 | 35° C | 69% | 733 hPa | - | - | 0 W/m² | - |
| 1777809385 | 35° C | 66% | 733 hPa | - | - | 0 W/m² | - |
* Rain since midnight (hover to see other rain measurements)
** Current wind speed in m/s (hover to see current wind gust speed)